Location: Unspecified
(0.0000°N, 0.0000°E)
Time: 03:39:59
(UTC+00:00)

CZ-3C DEB - Pass Details

Date: 16 February 2026
Orbit: 408 x 32633 km, 21.5° (Epoch: 28 September)

Event Time Altitude Azimuth Distance (km) Brightness Sun altitude
Exits shadow 23:10:01 30° 61° (ENE) 12,997 ? -70.1°
Drops below altitude 10° 07:04:15 10° 98° (E) 12,088 ? 12.3°
Sets 07:10:53 0° 100° (E) 11,362 ? 13.9°
